Change the Weather History Date:

Sunday, June 16, 2013

  Actual Average Record
Temperature  
Mean Temperature 60 °F -  
Max Temperature 68 °F 71 °F - ()
Min Temperature 52 °F 53 °F - ()
Degree Days  
Heating Degree Days 5    
Growing Degree Days 10 (Base 50)    
Moisture  
Dew Point 47 °F    
Average Humidity 57    
Maximum Humidity 72    
Minimum Humidity 33    
Precipitation  
Precipitation 0.00 in - - ()
Sea Level Pressure  
Sea Level Pressure 30.00 in    
Wind  
Wind Speed 8 mph ()    
Max Wind Speed 15 mph    
Max Gust Speed -    
Visibility 6.7 miles    
Events Rain    
T = Trace of Precipitation, MM = Missing Value Source: Averaged Metar Reports

Daily Weather History Graph

Daily Weather History Graph

Search for Another Location

Airport or City:

Trip Planner

Search our weather history database for the weather conditions in past years. The results will help you decide how hot, cold, wet, or windy it might be!

Date:

Astronomy

Jun. 16, 2013 Rise Set
Actual Time 5:16 AM CEST 9:51 PM CEST
Civil Twilight 4:29 AM CEST 10:38 PM CEST
Nautical Twilight 3:16 AM CEST 11:51 PM CEST
Astronomical Twilight 2:05 AM CEST 1:01 AM CEST
Moon 1:24 PM CEST (6/16) 1:03 AM CEST (6/16)
Length of Visible Light 18h 09m
Length of Day
16h 35m
Waxing Crescent, 47% of the Moon is Illuminated
Jun 16
Waxing Crescent
Jun 16
First Quarter
Jun 23
Full
Jun 30
Last Quarter
Jul 8
New

Hourly Weather History & Observations

Time (CEST) Temp. Dew Point Humidity Pressure Visibility Wind Dir Wind Speed Gust Speed Precip Events Conditions
12:00 AM 56 °F 45 °F 56% 29.97 in 25 mi SSW 6.7 mph - -   Partly Cloudy
12:20 AM 55.4 °F 44.6 °F 67% 29.95 in - SSW 5.8 mph - N/A   Clear
12:50 AM 57.2 °F 46.4 °F 67% 29.98 in - SW 8.1 mph - N/A   Clear
1:20 AM 59.0 °F 46.4 °F 63% 29.98 in - SSW 8.1 mph - N/A   Clear
1:50 AM 59.0 °F 44.6 °F 59% 29.98 in - SSW 9.2 mph - N/A   Clear
2:00 AM 58 °F 45 °F 52% 29.98 in 28 mi SSW 8.9 mph - -   Mostly Cloudy
2:20 AM 57.2 °F 44.6 °F 63% 29.98 in - SW 9.2 mph - N/A   Clear
2:50 AM 57.2 °F 44.6 °F 63% 29.98 in - SW 11.5 mph - N/A   Clear
3:00 AM 56 °F 45 °F 57% 29.99 in 28 mi SW 11.2 mph - -   Mostly Cloudy
3:20 AM 55.4 °F 44.6 °F 67% 29.98 in 6.2 mi SW 10.4 mph - N/A   Scattered Clouds
3:50 AM 53.6 °F 44.6 °F 72% 29.98 in 6.2 mi SW 10.4 mph - N/A   Scattered Clouds
4:00 AM 53 °F 45 °F 67% 29.99 in 19 mi SW 11.2 mph - -   Partly Cloudy
4:20 AM 53.6 °F 44.6 °F 72% 29.98 in 6.2 mi SW 10.4 mph - N/A   Scattered Clouds
4:50 AM 53.6 °F 44.6 °F 72% 29.98 in 6.2 mi SW 9.2 mph - N/A   Scattered Clouds
5:20 AM 53.6 °F 44.6 °F 72% 29.98 in 6.2 mi SW 10.4 mph - N/A   Scattered Clouds
5:50 AM 53.6 °F 44.6 °F 72% 29.98 in 6.2 mi SSW 10.4 mph - N/A   Mostly Cloudy
6:00 AM 53 °F 46 °F 69% 29.99 in 25 mi SSW 8.9 mph - -   Scattered Clouds
6:20 AM 55.4 °F 46.4 °F 72% 29.98 in - SSW 11.5 mph - N/A   Clear
6:50 AM 55.4 °F 46.4 °F 72% 30.01 in - South 10.4 mph - N/A   Clear
7:00 AM 56 °F 46 °F 61% 30.01 in 25 mi South 11.2 mph - -   Mostly Cloudy
7:20 AM 57.2 °F 46.4 °F 67% 29.98 in - South 9.2 mph - N/A   Clear
7:50 AM 57.2 °F 46.4 °F 67% 29.98 in - South 9.2 mph - N/A   Clear
8:00 AM 57 °F 47 °F 60% 30.00 in 25 mi South 8.9 mph - -   Mostly Cloudy
8:20 AM 57.2 °F 46.4 °F 67% 30.01 in - South 11.5 mph - N/A   Clear
8:50 AM 59.0 °F 46.4 °F 63% 30.01 in - SSW 11.5 mph - N/A   Clear
9:00 AM 58 °F 46 °F 54% 30.01 in 25 mi SSW 11.2 mph - -   Mostly Cloudy
9:20 AM 59.0 °F 46.4 °F 63% 30.01 in - SSW 11.5 mph - N/A   Clear
9:50 AM 59.0 °F 46.4 °F 63% 30.01 in - SSW 10.4 mph - N/A   Clear
10:00 AM 59 °F 46 °F 51% 30.02 in 25 mi SSW 11.2 mph - -   Partly Cloudy
10:20 AM 60.8 °F 44.6 °F 55% 30.01 in 6.2 mi SSW 13.8 mph - N/A   Mostly Cloudy
10:50 AM 60.8 °F 46.4 °F 59% 30.01 in 6.2 mi SW 13.8 mph - N/A   Mostly Cloudy
11:20 AM 62.6 °F 48.2 °F 59% 30.01 in 6.2 mi SSW 15.0 mph - N/A   Mostly Cloudy
11:50 AM 64.4 °F 50.0 °F 59% 30.01 in 6.2 mi SSW 13.8 mph - N/A   Mostly Cloudy
12:00 PM 64 °F 49 °F 48% 30.01 in 25 mi SSW 13.4 mph - -   Scattered Clouds
12:20 PM 64.4 °F 48.2 °F 56% 30.01 in 6.2 mi SW 12.7 mph - N/A   Mostly Cloudy
12:50 PM 64.4 °F 48.2 °F 56% 30.01 in 6.2 mi SW 12.7 mph - N/A   Mostly Cloudy
1:00 PM 64 °F 48 °F 46% 30.01 in 25 mi SW 13.4 mph - -   Partly Cloudy
1:20 PM 66.2 °F 50.0 °F 56% 30.01 in 6.2 mi SW 11.5 mph - N/A   Mostly Cloudy
1:50 PM 68.0 °F 50.0 °F 52% 30.01 in 6.2 mi SW 12.7 mph - N/A   Mostly Cloudy
2:00 PM 67 °F 49 °F 42% 30.02 in 25 mi SW 13.4 mph - -   Partly Cloudy
2:20 PM 66.2 °F 50.0 °F 56% 30.01 in 6.2 mi WSW 11.5 mph - N/A   Mostly Cloudy
2:50 PM 68.0 °F 48.2 °F 49% 30.01 in 6.2 mi SW 8.1 mph - N/A   Mostly Cloudy
3:00 PM 67 °F 48 °F 40% 30.01 in 25 mi SW 8.9 mph - -   Scattered Clouds
3:20 PM 68.0 °F 44.6 °F 43% 30.01 in 6.2 mi WSW 9.2 mph - N/A   Mostly Cloudy
3:50 PM 68.0 °F 46.4 °F 46% 30.01 in 6.2 mi West 5.8 mph - N/A   Mostly Cloudy
4:00 PM 68 °F 46 °F 33% 30.01 in 25 mi West 6.7 mph - -   Scattered Clouds
4:20 PM 68.0 °F 46.4 °F 46% 30.01 in 6.2 mi West 8.1 mph - N/A   Mostly Cloudy
4:50 PM 68.0 °F 46.4 °F 46% 30.01 in 6.2 mi West 8.1 mph - N/A   Mostly Cloudy
5:20 PM 68.0 °F 46.4 °F 46% 30.01 in 6.2 mi West 3.5 mph - N/A Rain Light Rain
5:50 PM 68.0 °F 44.6 °F 43% 30.01 in 6.2 mi WSW 4.6 mph - N/A Rain Light Rain
6:00 PM 67 °F 46 °F 36% 30.00 in 25 mi WSW 4.5 mph - - Rain Light Rain
6:20 PM 68.0 °F 48.2 °F 49% 30.01 in 6.2 mi West 5.8 mph - N/A Rain Light Rain
6:50 PM 68.0 °F 48.2 °F 49% 29.98 in - NNW 4.6 mph - N/A   Clear
7:00 PM 67 °F 47 °F 37% 30.00 in 25 mi NNW 4.5 mph - - Rain Light Rain
7:20 PM 66.2 °F 48.2 °F 52% 30.01 in - NNW 3.5 mph - N/A   Clear
7:50 PM 66.2 °F 48.2 °F 52% 30.01 in - NNW 4.6 mph - N/A   Clear
8:00 PM 65 °F 49 °F 45% 30.00 in 25 mi NNW 4.5 mph - - Rain Light Rain
8:20 PM 66.2 °F 50.0 °F 56% 29.98 in - North 3.5 mph - N/A   Clear
8:50 PM 64.4 °F 50.0 °F 59% 29.98 in - North 4.6 mph - N/A   Clear
9:00 PM 64 °F 49 °F 48% 30.00 in 31 mi NNE 4.5 mph - - Rain Light Rain
9:20 PM 62.6 °F 50.0 °F 63% 29.98 in - NNE 4.6 mph - N/A   Clear
9:50 PM 62.6 °F 48.2 °F 59% 29.98 in - NNE 4.6 mph - N/A   Clear
10:00 PM 63 °F 49 °F 49% 29.99 in 31 mi NNE 4.5 mph - -   Mostly Cloudy
10:20 PM 60.8 °F 50.0 °F 68% 30.01 in - NNE 4.6 mph - N/A   Clear
10:50 PM 60.8 °F 51.8 °F 72% 30.01 in - North 5.8 mph - N/A   Clear
11:20 PM 59.0 °F 50.0 °F 72% 30.01 in - North 6.9 mph - N/A   Clear
11:50 PM 59.0 °F 48.2 °F 67% 30.01 in - North 5.8 mph - N/A   Clear